Regional Weather Roundup
Issued by NWS

Home | Current Version | Previous Version | Graphics & Text | Print | Product List | Glossary On
Versions: 1 2 3 4 5 6 7 8 9 10 11 12 13 14 15 16 17 18 19 20 21 22 23 24 25 26 27 28 29 30 31 32 33 34 35 36 37 38 39 40 41 42 43 44 45 46 47 48 49 50
708
ASUS43 KLOT 220708
RWRIL

ILLINOIS REGIONAL WEATHER ROUNDUP
NATIONAL WEATHER SERVICE CHICAGO/ROMEOVILLE IL
200 AM CDT TUE AUG 22 2017

NOTE: "FAIR" INDICATES FEW OR NO CLOUDS BELOW 12,000 FEET WITH NO
SIGNIFICANT WEATHER AND/OR OBSTRUCTIONS TO VISIBILITY.

* THESE STATIONS ARE NOT UNDER NWS QUALITY CONTROL. THEY ALSO MAY NOT
  REPORT WEATHER SUCH AS PRECIPITATION OR FOG.

ILZ001-002-007-009-015-016-024-220800-
NORTHWEST ILLINOIS

CITY           SKY/WX    TMP DP  RH WIND       PRES   REMARKS
MOLINE         LGT RAIN  70  66  87 SW9       29.89R
STERLING*      LGT RAIN  73  69  87 SW10G18   29.86R
SAVANNA*       CLOUDY    71  68  91 W12G18    29.87R
$$

ILZ003-004-008-010-011-017-018-220800-
NORTH CENTRAL ILLINOIS

CITY           SKY/WX    TMP DP  RH WIND       PRES   REMARKS
ROCKFORD       CLOUDY    73  69  87 W9        29.85S
FREEPORT*      CLOUDY    71  69  95 W15G24    29.87R
ROCHELLE*      CLOUDY    73  70  91 SW8       29.86R
DE KALB*       CLOUDY    72  71  96 SW9       29.86S
PERU*          CLOUDY    73  71  92 SW15      29.87S
$$

ILZ005-006-012>014-019>023-220800-
NORTHEAST ILLINOIS

CITY           SKY/WX    TMP DP  RH WIND       PRES   REMARKS
CHICAGO-OHARE  CLOUDY    73  68  84 S9        29.83S
CHICAGO-MIDWAY CLOUDY    74  70  87 S15G22    29.83F
AURORA         CLOUDY    72  71  97 S9        29.85S
LANSING*       CLOUDY    72  68  88 S15       29.86F
JOLIET*        CLOUDY    73  72  96 S7        29.86S
WAUKEGAN       CLOUDY    74  70  87 SW12      29.82F
DUPAGE AIRPORT CLOUDY    72  71  97 S12G24    29.84S
WHEELING       MOCLDY    74  70  87 SW10      29.85S
MORRIS*        CLOUDY    73  69  90 SW13G20   29.85R
ROMEOVILLE*    MOCLDY    71  68  89 SW13      29.85F
NORTHERLY ISL    N/A     73  68  84 S15         N/A
$$

LMZ740>746-220800-
SOUTHERN LAKE MICHIGAN

STATION/POSITION SKY/WX   TEMP    WIND        PRES    VSBY  WAVE
                          AIR SEA DIR/SP/G                  HT/PER
                          (F)     (DEG/KT/KT) (MB)    (MI)  (FT/S)
SOUTHERN BUOY              74 72  230/  8/ 10 1010.5          1/ 4
WILMETTE HARBOR            74 74  210/ 16/ 19   N/A           2/ 3
HARRISON CRIB              74     210/ 26/ 28   N/A
CALUMET HARBOR                    190/  9/ 18 1010.0F
BURNS HARBOR               72     190/ 17/ 22 1011.9F
MICHIGAN CITY              72     160/ 16/ 20   N/A
MICHIGAN CITY 6N           73 74  200/ 16/ 21   N/A           3/ 3
ST. JOSEPH                 72 74  220/ 12/ 16 1011.5          4/ 4
$$

ILZ025>027-034>036-040-047-049-050-058-095>099-220800-
WEST-CENTRAL ILLINOIS

CITY           SKY/WX    TMP DP  RH WIND       PRES   REMARKS
QUINCY         RAIN      68  67  96 NW8       29.98R FOG
GALESBURG*     RAIN      69  68  98 S8        29.94S
MACOMB*        RAIN      68  67  97 W5        29.97F
JACKSONVILLE*  RAIN      71  69  92 NW21G30   29.96R
PITTSFIELD*    TSTM      69  68  97 N5        29.99R
$$

ILZ028>032-037-038-041>044-048-051>054-059>061-220800-
CENTRAL ILLINOIS

CITY           SKY/WX    TMP DP  RH WIND       PRES   REMARKS
PONTIAC        CLOUDY    71  70  98 S9        29.91S THUNDER
BLOOMINGTON    TSTM      70  69  97 W14       29.94S
DECATUR        CLOUDY    76  70  82 S14       29.92F
PEORIA         RAIN      73  73 100 W12       29.94R
LACON*         RAIN      74  72  93 SW12G20   29.90R
LINCOLN*       CLOUDY    72  71  98 NW9G20    29.91F THUNDER
SPRINGFIELD    CLOUDY    77  74  90 W10       29.93R
TAYLORVILLE    CLOUDY    74  72  93 S8        29.93S
$$

ILZ033-039-045-046-055>057-062-063-220800-
EAST-CENTRAL ILLINOIS

CITY           SKY/WX    TMP DP  RH WIND       PRES   REMARKS
CHAMPAIGN      CLOUDY    74  69  85 SW7       29.94R
RANTOUL*       TSTM      71  70  98 NW7G16    29.94R
MATTOON        CLOUDY    75  71  87 S12       29.93F
PARIS*         MOCLDY    75  70  85 S12G18    29.95S THUNDER
$$

ILZ079-100>102-220800-
SOUTHWEST ILLINOIS

CITY           SKY/WX    TMP DP  RH WIND       PRES   REMARKS
ALTON          CLOUDY    78  76  92 S8        29.95S HX  80
BELLEVILLE     CLOUDY    77  74  90 SW8       29.96F
CAHOKIA*       CLOUDY    83  74  74 SW9G18    29.95F HX  89
SPARTA*        CLOUDY    77  74  90 SW6       29.98F
$$

ILZ064>066-069>071-074>076-080>082-084>086-088>090-092>094-220800-
SOUTH-CENTRAL ILLINOIS

CITY           SKY/WX    TMP DP  RH WIND       PRES   REMARKS
CARBONDALE     CLEAR     76  75  97 S6        29.98F
CAIRO*         CLEAR     78  76  93 S6        30.01F HX  80
EFFINGHAM*     CLOUDY    74  72  92 S8        29.96F
MARION         CLEAR     75  75 100 S6        29.99F
MT. VERNON       N/A     73  71  93 SW6       29.98F
CENTRALIA*     PTCLDY    75  73  92 S9        29.96F
SALEM*         PTCLDY    76  71  85 S7        29.96F
METROPOLIS*    CLEAR     78  74  87 S6        30.02F HX  80
$$

ILZ067-068-072-073-078-083-087-091-220800-
SOUTHEAST ILLINOIS

CITY           SKY/WX    TMP DP  RH WIND       PRES   REMARKS
LAWRENCEVILLE  CLEAR     72  71  97 S8        29.96F
FLORA*         CLEAR     74  72  93 S8        29.97F
FAIRFIELD*     CLEAR     72  72  99 CALM      29.96F
HARRISBURG*    CLEAR     71  71  99 CALM      30.00F
ROBINSON*      CLEAR     72  71  96 S9        29.95F
CARMI*         CLEAR     72  72  99 S5        29.98F
$$

ABBREVIATIONS USED IN REMARKS
   TC - TEMPERATURE IN CELSIUS
  WCI - WIND CHILL INDEX
   HX - HEAT INDEX
  VSB - VISIBILITY
$$





USA.gov is the U.S. government's official web portal to all federal, state and local government web resources and services.